Content
SEND FEEDBACK

Daily
Averages
Monthly
Summary
United States of America

MARKSVILLE, LOUISIANA


Home > North America > United States > Louisiana
Elevation: 78 feet     Latitude: 31 05N     Longitude: 092 04W

WEATHER
 
SELECT A DAY
Number of Records: 224,206;   Date Range: 1/1/95 - 12/27/14
 
SHARE

PRINT THIS DATA

[ ← Previous Day ]
WEATHER ALMANAC - FEBRUARY 13, 2013
[ Next Day → ]
[ °C ]   °F
Weather ElementAverageHighLow
Temperature49.1 °F57 °F (3:53 pm)36 °F (11:53 pm)
Dewpoint41.2 °F48.2 °F (12:31 am)34 °F (11:53 pm)
Humidity76 %94 % (12:31 am)49 % (2:53 pm)
Barometer30.01 in30.09 in (8:53 pm)29.90 in (12:31 am)
Wind Speed4.9 mph11.5 mph (4:38 am)
Wind Gust19.6 mph (4:53 am)
Weather ElementAverage
Visibility9.7 mi
Wind DirectionSSE (155.7 °)

Weather ElementTotal
Precipitation0.02 in
Heating Degree Days18.5 (Base 65)
Averaged from 35 records on February 13, 2013
WEATHER CONDITIONS BREAKOUT
WIND DIRECTION BREAKOUT
WEATHER BY HOUR - FEBRUARY 13, 2013
[ °C ]   °F
Local TimeTemperatureDewpointHumidityBarometerVisibilityWind DirectionWind SpeedGust SpeedPrecipitationEventsConditions
12:31 AM50.0 °F48.2 °F94 %29.90 in10.0 miCalmOvercast
12:44 AM51.8 °F48.2 °F88 %29.90 in10.0 miCalmOvercast
12:53 AM51.1 °F48.0 °F89 %29.91 in10.0 miCalmOvercast
1:22 AM51.8 °F48.2 °F88 %29.92 in10.0 miVariable4.6 mphOvercast
1:34 AM51.8 °F48.2 °F88 %29.92 in10.0 miWSW (250°)4.6 mphOvercast
1:53 AM51.1 °F48.0 °F89 %29.92 in10.0 miWest (260°)3.5 mphMostly Cloudy
2:53 AM51.1 °F48.0 °F89 %29.93 in10.0 miWest (280°)6.9 mphMostly Cloudy
3:01 AM51.8 °F48.2 °F88 %29.94 in10.0 miWNW (290°)4.6 mphScattered Clouds
3:53 AM51.1 °F46.9 °F86 %29.94 in10.0 miWest (280°)4.6 mphMostly Cloudy
4:38 AM50.0 °F44.6 °F82 %29.96 in10.0 miNW (310°)11.5 mph18.4 mphOvercast
4:53 AM50.0 °F44.1 °F80 %29.96 in10.0 miWNW (290°)8.1 mph19.6 mphOvercast
5:53 AM48.0 °F39.9 °F74 %29.99 in10.0 miWNW (300°)6.9 mphOvercast
6:01 AM48.2 °F39.2 °F71 %29.99 in10.0 miWNW (300°)6.9 mphOvercast
6:53 AM46.9 °F39.9 °F77 %30.00 in10.0 miNW (310°)4.6 mphMostly Cloudy
7:00 AM46.4 °F39.2 °F76 %29.99 in10.0 miWNW (300°)4.6 mphScattered Clouds
7:53 AM48.0 °F39.9 °F74 %30.05 in10.0 miWNW (300°)4.6 mphMostly Cloudy
8:53 AM48.0 °F41.0 °F77 %30.07 in10.0 miWNW (300°)6.9 mphClear
9:53 AM52.0 °F41.0 °F66 %30.06 in10.0 miNW (310°)9.2 mphScattered Clouds
10:01 AM51.8 °F39.2 °F62 %30.06 in10.0 miVariable6.9 mphMostly Cloudy
10:46 AM53.6 °F39.2 °F58 %30.06 in10.0 miNorth (350°)10.4 mph17.3 mph0.01 inMostly Cloudy
10:53 AM52.0 °F39.0 °F61 %30.06 in10.0 miNW (320°)9.2 mph17.3 mph0.01 inOvercast
11:53 AM54.0 °F37.0 °F53 %30.04 in10.0 miNorth (10°)9.2 mph17.3 mphMostly Cloudy
12:53 PM55.0 °F37.9 °F53 %30.02 in10.0 miVariable6.9 mph18.4 mphMostly Cloudy
1:53 PM55.9 °F37.9 °F51 %30.02 in10.0 miWNW (300°)11.5 mph17.3 mphScattered Clouds
2:53 PM55.9 °F37.0 °F49 %30.02 in10.0 miNorth (360°)8.1 mphPartly Cloudy
3:53 PM57.0 °F37.9 °F49 %30.02 in10.0 miNorth (10°)8.1 mphMostly Cloudy
4:53 PM55.0 °F37.0 °F51 %30.03 in10.0 miNNE (20°)9.2 mphMostly Cloudy
5:53 PM51.1 °F37.9 °F61 %30.05 in10.0 miCalmScattered Clouds
6:53 PM45.0 °F41.0 °F86 %30.06 in10.0 miCalmClear
7:53 PM42.1 °F39.0 °F89 %30.07 in10.0 miCalmClear
8:53 PM39.0 °F37.0 °F93 %30.09 in10.0 miCalmClear
9:53 PM39.0 °F36.0 °F89 %30.09 in2.0 miCalmClear
10:06 PM39.2 °F37.4 °F93 %30.09 in9.0 miCalmClear
10:53 PM37.9 °F36.0 °F93 %30.09 in10.0 miCalmClear
11:53 PM36.0 °F34.0 °F93 %30.09 in10.0 miCalmClear
Hourly data recorded from KESF, located miles away from Marksville, Louisiana







STORIES FROM OUR PARTNERS